GW3210 Weather Reports


time (UTC)temp
C
wind
direction
speed
KPH
gust
KPH
rain 1hr
cm
rain 24hr
cm
rain mn
cm
humidity
%
barometer
mb
20260508022116 18 0.0 1.6 0.00 0.00 0.00 33 1017.8
20260508021116 19 338 1.6 3.2 0.00 0.00 0.00 32 1017.9
20260508020136 19 293 3.2 4.8 0.00 0.00 0.00 30 1018.1
20260508015116 20 23 1.6 3.2 0.00 0.00 0.00 26 1018.1
20260508014115 20 338 3.2 4.8 0.00 0.00 0.00 25 1018.1
20260508013137 20 0 4.8 6.4 0.00 0.00 0.00 24 1018.2
20260508012136 20 315 3.2 6.4 0.00 0.00 0.00 23 1018.2
20260508011115 21 0.0 3.2 0.00 0.00 0.00 21 1018.3
20260508010116 21 338 3.2 4.8 0.00 0.00 0.00 20 1018.4
20260508005156 21 0 6.4 8.0 0.00 0.00 0.00 20 1018.5
20260508004116 22 0 3.2 6.4 0.00 0.00 0.00 21 1018.6
20260508003116 22 293 4.8 6.4 0.00 0.00 0.00 22 1018.6
20260508002116 21 338 9.7 14.5 0.00 0.00 0.00 21 1018.7
20260508001116 21 0 6.4 12.9 0.00 0.00 0.00 21 1018.7
20260508000116 22 45 3.2 4.8 0.00 0.00 0.00 23 1018.8
20260507235115 21 23 1.6 3.2 0.00 0.00 0.00 24 1018.9
20260507234115 22 338 11.3 16.1 0.00 0.00 0.00 25 1019.2
20260507233115 22 338 3.2 8.0 0.00 0.00 0.00 24 1019.3
20260507232115 21 315 8.0 16.1 0.00 0.00 0.00 24 1019.3
20260507231115 22 338 6.4 9.7 0.00 0.00 0.00 25 1019.6
20260507230136 21 338 6.4 12.9 0.00 0.00 0.00 25 1019.7
20260507225116 21 248 6.4 14.5 0.00 0.00 0.00 23 1019.8
20260507224135 21 23 4.8 8.0 0.00 0.00 0.00 24 1019.8
20260507223118 21 293 8.0 14.5 0.00 0.00 0.00 24 1020.0
20260507222117 21 0 6.4 12.9 0.00 0.00 0.00 28 1020.0
20260507221118 21 293 6.4 11.3 0.00 0.00 0.00 25 1020.2
20260507220117 20 248 3.2 8.0 0.00 0.00 0.00 26 1020.1
20260507215117 20 270 9.7 16.1 0.00 0.00 0.00 28 1020.3
20260507214117 20 0 4.8 9.7 0.00 0.00 0.00 28 1020.4
20260507213115 19 338 4.8 8.0 0.00 0.00 0.00 33 1020.6
20260507212117 20 293 6.4 11.3 0.00 0.00 0.00 30 1020.6
20260507211117 19 338 1.6 4.8 0.00 0.00 0.00 33 1020.7
20260507210138 19 293 4.8 11.3 0.00 0.00 0.00 33 1020.8
20260507205117 19 270 4.8 6.4 0.00 0.00 0.00 34 1020.9
20260507204158 18 270 4.8 9.7 0.00 0.00 0.00 34 1021.0
20260507203138 19 113 1.6 3.2 0.00 0.00 0.00 34 1021.1
20260507202117 18 293 4.8 8.0 0.00 0.00 0.00 35 1021.2
20260507201117 19 315 6.4 12.9 0.00 0.00 0.00 34 1021.4
20260507200239 18 23 1.6 3.2 0.00 0.00 0.00 35 1021.4
20260507195138 18 293 1.6 4.8 0.00 0.00 0.00 34 1021.5
20260507194117 18 23 4.8 8.0 0.00 0.00 0.00 37 1021.7
20260507193118 18 338 6.4 12.9 0.00 0.00 0.00 39 1021.7
20260507192117 17 315 4.8 8.0 0.00 0.00 0.00 40 1021.7
20260507191117 18 180 3.2 6.4 0.00 0.00 0.00 37 1021.8
20260507190117 17 248 3.2 4.8 0.00 0.00 0.00 41 1021.9
20260507185118 17 293 4.8 11.3 0.00 0.00 0.00 42 1022.0
20260507184117 17 225 3.2 6.4 0.00 0.00 0.00 39 1022.0
20260507183117 17 248 3.2 6.4 0.00 0.00 0.00 41 1022.1
20260507182117 16 315 3.2 8.0 0.00 0.00 0.00 42 1022.2
20260507181117 16 293 6.4 11.3 0.00 0.00 0.00 44 1022.3
20260507180117 16 315 6.4 12.9 0.00 0.00 0.00 45 1022.3
20260507175117 15 45 3.2 4.8 0.00 0.00 0.00 46 1022.4
20260507174118 15 270 3.2 8.0 0.00 0.00 0.00 47 1022.3
20260507173117 15 315 6.4 12.9 0.00 0.00 0.00 48 1022.4
20260507172117 15 270 6.4 9.7 0.00 0.00 0.00 52 1022.3
20260507171117 13 293 6.4 11.3 0.00 0.00 0.00 52 1022.3
20260507170117 13 293 8.0 12.9 0.00 0.00 0.00 53 1022.3
20260507165117 12 315 6.4 11.3 0.00 0.00 0.00 55 1022.3
20260507164117 11 270 4.8 6.4 0.00 0.00 0.00 58 1022.3
20260507163117 11 293 6.4 9.7 0.00 0.00 0.00 56 1022.3
20260507162137 11 338 4.8 6.4 0.00 0.00 0.00 58 1022.2
20260507161116 11 315 4.8 6.4 0.00 0.00 0.00 59 1022.3
20260507160137 11 315 6.4 9.7 0.00 0.00 0.00 59 1022.3
20260507155117 10 338 3.2 4.8 0.00 0.00 0.00 60 1022.3
20260507154117 10 293 4.8 6.4 0.00 0.00 0.00 61 1022.4
20260507153117 10 293 4.8 6.4 0.00 0.00 0.00 61 1022.4
20260507152116 10 293 6.4 11.3 0.00 0.00 0.00 61 1022.4
20260507151137 10 338 4.8 8.0 0.00 0.00 0.00 62 1022.4
20260507150116 9 338 8.0 12.9 0.00 0.00 0.00 61 1022.4
20260507144117 9 293 6.4 12.9 0.00 0.00 0.00 61 1022.3
20260507143116 9 293 6.4 11.3 0.00 0.00 0.00 61 1022.3
20260507142117 9 338 6.4 8.0 0.00 0.00 0.00 61 1022.3
20260507141116 9 293 9.7 14.5 0.00 0.00 0.00 61 1022.3
20260507140158 8 315 6.4 9.7 0.00 0.00 0.00 61 1022.1
20260507135116 8 315 6.4 9.7 0.00 0.00 0.00 62 1022.1
20260507134116 8 315 8.0 14.5 0.00 0.00 0.00 62 1022.2
20260507133117 8 315 6.4 8.0 0.00 0.00 0.00 62 1022.1
20260507132117 8 338 3.2 6.4 0.00 0.00 0.00 63 1022.1
20260507131117 8 338 4.8 8.0 0.00 0.00 0.00 63 1022.1
20260507130117 8 315 3.2 4.8 0.00 0.00 0.00 63 1022.3
20260507125116 8 315 3.2 6.4 0.00 0.00 0.00 62 1022.3
20260507124116 8 338 6.4 14.5 0.00 0.00 0.00 62 1022.3
20260507123116 8 338 6.4 12.9 0.00 0.00 0.00 62 1022.2
20260507122116 8 315 6.4 11.3 0.00 0.00 0.00 61 1022.3
20260507121116 9 315 6.4 9.7 0.00 0.00 0.00 61 1022.3
20260507120116 9 315 8.0 12.9 0.00 0.00 0.00 61 1022.4
20260507115116 9 315 12.9 17.7 0.00 0.00 0.00 61 1022.5
20260507114117 9 315 8.0 12.9 0.00 0.00 0.00 61 1022.6
20260507113116 10 338 9.7 16.1 0.00 0.00 0.00 62 1022.5
20260507112116 10 293 9.7 12.9 0.00 0.00 0.00 62 1022.5
20260507111116 10 315 4.8 9.7 0.00 0.00 0.00 61 1022.4
20260507110137 10 315 6.4 11.3 0.00 0.00 0.00 61 1022.5
20260507105117 10 315 6.4 12.9 0.00 0.00 0.00 61 1022.6
20260507104116 10 293 4.8 9.7 0.00 0.00 0.00 61 1022.6
20260507103116 10 293 9.7 12.9 0.00 0.00 0.00 62 1022.6
20260507102136 10 338 8.0 12.9 0.00 0.00 0.00 62 1022.7
20260507101116 10 315 4.8 8.0 0.00 0.00 0.00 62 1022.7
20260507100116 10 315 6.4 12.9 0.00 0.00 0.00 62 1022.7
20260507095116 10 293 4.8 8.0 0.00 0.00 0.00 63 1022.8
20260507094116 10 338 4.8 6.4 0.00 0.00 0.00 63 1022.9
20260507093116 10 338 6.4 9.7 0.00 0.00 0.00 64 1023.0
20260507092116 10 315 3.2 6.4 0.00 0.00 0.00 64 1023.0
20260507091116 10 315 4.8 6.4 0.00 0.00 0.00 63 1023.1
20260507090116 10 315 4.8 11.3 0.00 0.00 0.00 63 1023.1
20260507085116 10 293 4.8 4.8 0.00 0.00 0.00 63 1023.2
20260507084116 11 293 6.4 9.7 0.00 0.00 0.00 63 1023.1
20260507083116 11 293 6.4 11.3 0.00 0.00 0.00 63 1023.2
20260507082116 11 293 6.4 11.3 0.00 0.00 0.00 63 1023.2
20260507081216 11 293 6.4 8.0 0.00 0.00 0.00 63 1023.2
20260507080115 11 293 6.4 9.7 0.00 0.00 0.00 63 1023.2
20260507075115 11 315 6.4 11.3 0.00 0.00 0.00 63 1023.2
20260507074137 11 293 4.8 4.8 0.00 0.00 0.00 63 1023.2
20260507073115 11 315 6.4 16.1 0.00 0.00 0.00 63 1023.1
20260507072116 11 293 6.4 12.9 0.00 0.00 0.00 63 1023.0
20260507071116 11 315 6.4 12.9 0.00 0.00 0.00 63 1022.9
20260507070115 11 315 6.4 11.3 0.00 0.00 0.00 63 1022.9
20260507065116 11 315 6.4 11.3 0.00 0.00 0.00 63 1022.9
20260507064136 11 293 6.4 11.3 0.00 0.00 0.00 63 1022.9
20260507063116 11 315 6.4 9.7 0.00 0.00 0.00 63 1023.0
20260507062118 11 338 4.8 8.0 0.00 0.00 0.00 63 1022.9
20260507061116 11 293 11.3 16.1 0.00 0.00 0.00 62 1022.9
20260507060137 11 338 6.4 11.3 0.00 0.00 0.00 62 1022.9
20260507055116 11 315 12.9 20.9 0.00 0.00 0.00 62 1022.8
20260507054116 11 293 9.7 14.5 0.00 0.00 0.00 62 1022.8
20260507053116 11 315 11.3 16.1 0.00 0.00 0.00 62 1022.9
20260507052157 11 338 8.0 14.5 0.00 0.00 0.00 62 1022.8
20260507051116 11 315 4.8 6.4 0.00 0.00 0.00 62 1022.9
20260507050116 12 0 8.0 16.1 0.00 0.00 0.00 61 1022.9
20260507045116 12 293 9.7 17.7 0.00 0.00 0.00 60 1022.8
20260507044116 12 338 9.7 14.5 0.00 0.00 0.00 60 1022.8
20260507043116 12 338 4.8 8.0 0.00 0.00 0.00 60 1022.8
20260507042115 12 338 14.5 20.9 0.00 0.00 0.00 60 1022.8
20260507041117 12 338 12.9 17.7 0.00 0.00 0.00 59 1022.7
20260507040116 13 0 16.1 20.9 0.00 0.00 0.00 59 1022.8
20260507035116 13 338 14.5 17.7 0.00 0.00 0.00 59 1022.6
20260507034116 13 315 16.1 24.1 0.00 0.00 0.00 59 1022.4
20260507033116 13 315 8.0 14.5 0.00 0.00 0.00 59 1022.3
20260507032115 13 338 8.0 12.9 0.00 0.00 0.00 59 1022.1
20260507031116 14 315 11.3 19.3 0.00 0.00 0.00 59 1022.0
20260507030116 14 338 9.7 16.1 0.00 0.00 0.00 59 1021.8
20260507025116 15 338 6.4 9.7 0.00 0.00 0.00 59 1021.8
20260507024116 15 315 12.9 19.3 0.00 0.00 0.00 58 1021.7
20260507023116 15 293 9.7 17.7 0.00 0.00 0.00 57 1021.8